Aurora, CO (80015)

5:54 AM MST on December 07, 2016 (GMT -0700)
TigerDenWX | | Change Station

Elev 5715 ft 39.64 °N, 104.79 °W | Updated 3 seconds ago

Light Snow
Light Snow
16.1 °F
Feels Like 16 °F
N
0.0
Wind Variable Wind from North
Gusts 1.0 mph

Today
High -- | Low -- °F
--% Chance of Precip.
Yesterday
High -- | Low -- °F
Precip. -- in
Pressure 29.98 in
Visibility 9.0 miles
Clouds Few 700 ft
Scattered Clouds 6500 ft
Overcast 9500 ft
Windchill 16 °F
Dew Point 12 °F
Humidity 84%
Rainfall 0.00 in
Snow Depth Not available.
7:06 AM 4:34 PM
First Quarter, 52% visible
SPECI KAPA 071251Z 07004KT 9SM -SN FEW007 SCT065 OVC095 M11/M12 A2998 RMK AO2 P0000
Pressure 29.98 in
Visibility 9.0 miles
Clouds Few 700 ft
Scattered Clouds 6500 ft
Overcast 9500 ft
Windchill 16 °F
Dew Point 12 °F
Humidity 84%
Rainfall 0.00 in
Snow Depth Not available.
7:06 AM 4:34 PM
First Quarter, 52% visible
SPECI KAPA 071251Z 07004KT 9SM -SN FEW007 SCT065 OVC095 M11/M12 A2998 RMK AO2 P0000

10-Day Weather Forecast

Almanac

Astronomy

Dec. 07, 2016 Rise Set
Actual Time
Civil Twilight
Nautical Twilight
Astronomical Twilight
Moon
Length of Visible Light
Length of Day
Tomorrow will be .
, % of the Moon is Illuminated

Today's Extremes

State Highs State Lows

Community

WunderPhotos

Upload Photos

1,956,112 photos uploaded!

WunderBlog® & News

Nearby

Air Quality

  Air Quality AQ Index Pollutant
Not available.

Snow Depth

Station Depth Elevation

Earthquake Activity

City Distance Mag. Time & Date
Minimum magnitude displayed is 2.5.

Coastal Water Temperatures

Place Temperature

Stations

Nearby Weather Stations

Station Location Temp. Windchill Dew Point Humidity Wind Precip. Elev Updated Type
                   

Watches & Warnings

Winter Weather Advisory
Issued: 4:12 AM MST Dec. 7, 2016 – National Weather Service

... Winter Weather Advisory remains in effect until noon MST
today...

* timing... snow will be decreasing through this morning

* snow accumulations... an additional one half to one inch is
expected for a storm total of 2 to 5 inches with higher amounts
west of I-25.

* Impacts... travel will be hazardous due to snowpacked roads and
reduced visibility.

Precautionary/preparedness actions...

A Winter Weather Advisory for snow means that periods of snow
will cause primarily travel difficulties. Be prepared for snow
covered roads and limited visibilities... and use caution while
driving.